Regional Weather Roundup
Issued by NWS

Home | Current Version | Previous Version | Graphics & Text | Print | Product List | Glossary On
Versions: 1 2 3 4 5 6 7 8 9 10 11 12 13 14 15 16 17 18 19 20 21 22 23 24 25 26 27 28 29 30 31 32 33 34 35 36 37 38 39 40 41 42 43 44 45 46 47 48 49 50
000
ASUS43 KMKX 200011
RWRWI

WISCONSIN REGIONAL WEATHER ROUNDUP
NATIONAL WEATHER SERVICE MILWAUKEE/SULLIVAN WI
700 PM CDT TUE AUG 19 2014

NOTE: "FAIR" INDICATES FEW OR NO CLOUDS BELOW 12,000 FEET WITH NO
SIGNIFICANT WEATHER AND/OR OBSTRUCTIONS TO VISIBILITY.

WIZ001-002-006>008-014>016-023>028-200100-
NORTHWEST WISCONSIN

CITY           SKY/WX    TMP DP  RH WIND       PRES   REMARKS
SUPERIOR ARPT  CLOUDY    65  62  92 NE3       29.76S
6HR MIN TEMP:  65; 6HR MAX TEMP:  71; 6HR PCP:  0.28;

ASHLAND        CLOUDY    63  60  90 NE8       29.77R
6HR MIN TEMP:  63; 6HR MAX TEMP:  70;

HAYWARD        PTSUNNY   66  65  96 NE8       29.76S
6HR MIN TEMP:  65; 6HR MAX TEMP:  72; 6HR PCP:  0.33;

SIREN          HVY RAIN  68  65  92 CALM      29.76R
6HR MIN TEMP:  68; 6HR MAX TEMP:  76; 6HR PCP:  0.33;

RICE LAKE      PTSUNNY   72  63  73 CALM      29.76S
6HR MIN TEMP:  68; 6HR MAX TEMP:  73; 6HR PCP:  0.02;

LADYSMITH      MOSUNNY   72  63  72 NW6       29.76S
6HR MIN TEMP:  69; 6HR MAX TEMP:  75;

EAU CLAIRE     PTSUNNY   72  67  84 CALM      29.74S
6HR MIN TEMP:  68; 6HR MAX TEMP:  78; 6HR PCP:  0.04;

MENOMONIE      MOCLDY    75  62  62 W7        29.74S
6HR MIN TEMP:  72; 6HR MAX TEMP:  79;

NEW RICHMOND   CLOUDY    74  62  65 W7        29.76S
6HR MIN TEMP:  72; 6HR MAX TEMP:  76;

OSCEOLA        MOSUNNY   74  63  69 CALM      29.77S
6HR MIN TEMP:  71; 6HR MAX TEMP:  77;

$$

WIZ003>005-009-010-017-018-200100-
NORTH CENTRAL WISCONSIN

CITY           SKY/WX    TMP DP  RH WIND       PRES   REMARKS
WOODRUFF       CLOUDY    65  60  82 NE5       29.76S
6HR MIN TEMP:  64; 6HR MAX TEMP:  72;

RHINELANDER    CLOUDY    65  59  81 NW7       29.77R
6HR MIN TEMP:  65; 6HR MAX TEMP:  73;

EAGLE RIVER    RAIN      62  58  87 NW6       29.76R
6HR MIN TEMP:  62; 6HR MAX TEMP:  71;

LAND O LAKES   CLOUDY    62  58  87 NW8       29.77S
6HR MIN TEMP:  62; 6HR MAX TEMP:  67; 6HR PCP:  0.01;

PHILLIPS       CLOUDY    65  63  94 CALM      29.75S
6HR MIN TEMP:  64; 6HR MAX TEMP:  71; 6HR PCP:  0.02;

TOMAHAWK       CLOUDY    65  60  82 CALM      29.76R
6HR MIN TEMP:  65; 6HR MAX TEMP:  72; 6HR PCP:  0.09;

MEDFORD        CLOUDY    66  63  88 N5        29.76R
6HR MIN TEMP:  66; 6HR MAX TEMP:  71; 6HR PCP:  0.02;

MERRILL        CLOUDY    67  64  90 N3        29.74S
6HR MIN TEMP:  67; 6HR MAX TEMP:  75; 6HR PCP:  0.04;

$$

WIZ029-030-035-036-043>047-200100-
CENTRAL WISCONSIN

CITY           SKY/WX    TMP DP  RH WIND       PRES   REMARKS
WAUSAU         CLOUDY    67  64  90 NW7       29.73R
6HR MIN TEMP:  66; 6HR MAX TEMP:  76; 6HR PCP:  0.17;

MOSINEE        MOCLDY    64  64 100 NW7       29.75R
MARSHFIELD     MOCLDY    72  62  71 W6        29.74S
6HR MIN TEMP:  70; 6HR MAX TEMP:  76;

STEVENS POINT  MOCLDY    72  61  69 NW6       29.73S
6HR MIN TEMP:  71; 6HR MAX TEMP:  75; 6HR PCP:  0.09;

WAUPACA        PTCLDY    76  63  62 W8        29.72R
6HR MIN TEMP:  75; 6HR MAX TEMP:  80;

WAUTOMA        CLEAR     76  64  66 W7        29.73R
6HR MIN TEMP:  75; 6HR MAX TEMP:  79;

WISC RAPIDS    PTCLDY    74  62  66 NW7       29.74S
6HR MIN TEMP:  72; 6HR MAX TEMP:  79;

CAMP DOUGLAS   PTCLDY    73  64  72 W9        29.74S
6HR MIN TEMP:  73; 6HR MAX TEMP:  77;

$$

WIZ011>013-019>022-031-037>040-048>050-200100-
NORTHEAST WISCONSIN

CITY           SKY/WX    TMP DP  RH WIND       PRES   REMARKS
ANTIGO         RAIN      64  63  96 W5        29.74S
6HR MIN TEMP:  64; 6HR MAX TEMP:  73; 6HR PCP:  0.11;

STURGEON BAY   CLOUDY    70  64  83 SW3       29.70R
6HR MIN TEMP:  70; 6HR MAX TEMP:  75;

GREEN BAY      PTCLDY    73  65  75 W8        29.69R
6HR MIN TEMP:  68; 6HR MAX TEMP:  78; 6HR PCP:  0.09;

MANITOWOC      CLOUDY    76  64  66 W10       29.70R
6HR MIN TEMP:  71; 6HR MAX TEMP:  77;

APPLETON       PTCLDY    73  61  64 W9        29.71R
CLINTONVILLE   PTCLDY    72  61  68 NW14G20   29.71R
OSHKOSH        CLEAR     75  62  64 W6        29.71R
6HR MIN TEMP:  71; 6HR MAX TEMP:  77;

$$

WIZ032>034-041-042-053>061-200100-
SOUTHWEST WISCONSIN

CITY           SKY/WX    TMP DP  RH WIND       PRES   REMARKS
LA CROSSE      MOSUNNY   79  63  57 N6        29.73S HX  80
6HR MIN TEMP:  77; 6HR MAX TEMP:  82;

SPARTA         PTCLDY    76  62  61 NW3       29.75S
6HR MIN TEMP:  74; 6HR MAX TEMP:  78;

VIROQUA        FAIR      74  63  68 NW3       29.77S
6HR MIN TEMP:  73; 6HR MAX TEMP:  78;

BOSCOBEL       CLEAR     80  63  55 W3        29.74S HX  81
6HR MIN TEMP:  79; 6HR MAX TEMP:  85;

PRAIRIE DU CHI CLEAR     80  59  49 W7        29.74S HX  80
6HR MIN TEMP:  78; 6HR MAX TEMP:  83;

PLATTEVILLE    FAIR      77  64  63 W6        29.76S
6HR MIN TEMP:  76; 6HR MAX TEMP:  81;

$$

WIZ056-057-062-063-064-067-068-200100-
SOUTH CENTRAL WISCONSIN

CITY           SKY/WX    TMP DP  RH WIND       PRES   REMARKS
BARABOO/DELLS  CLEAR     76  60  57 W5        29.74S
6HR MIN TEMP:  76; 6HR MAX TEMP:  81;

LONE ROCK      CLEAR     83  63  50 NW7       29.73S HX  84
6HR MIN TEMP:  82; 6HR MAX TEMP:  86;

WATERTOWN      PTCLDY    76  64  65 NW9       29.73R
6HR MIN TEMP:  76; 6HR MAX TEMP:  81;

MADISON        PTCLDY    78  63  59 NW6       29.73S HX  80
6HR MIN TEMP:  77; 6HR MAX TEMP:  82;

MIDDLETON      FAIR      78  59  52 NW8       29.74S
6HR MIN TEMP:  77; 6HR MAX TEMP:  83;

MONROE         PTCLDY    77  63  61 W9        29.75S
JANESVILLE     CLEAR     81  61  50 W7        29.73R HX  81
$$

WIZ051-052-058>065-066-070>072-200100-
SOUTHEAST WISCONSIN

CITY           SKY/WX    TMP DP  RH WIND       PRES   REMARKS
MILWAUKEE      MOCLDY    74  66  76 E6        29.71S
6HR MIN TEMP:  74; 6HR MAX TEMP:  83; 6HR PCP: TRACE;

WAUKESHA       PTCLDY    75  63  64 W7        29.73S
MILWAUKEE/TIMM PTCLDY    75  64  69 VRB55     29.72R
RACINE         MOCLDY    76  67  73 N5        29.73R
6HR MIN TEMP:  74; 6HR MAX TEMP:  83; 6HR PCP:  0.10;

BURLINGTON     CLEAR     76  64  65 W8        29.72S
6HR MIN TEMP:  75; 6HR MAX TEMP:  82;

KENOSHA        CLEAR     79  66  64 NW8       29.72R HX  81
6HR MIN TEMP:  79; 6HR MAX TEMP:  84;

FOND DU LAC    CLEAR     75  61  61 W9        29.71S
6HR MIN TEMP:  73; 6HR MAX TEMP:  79;

SHEBOYGAN      MOCLDY    75  64  68 W6        29.71R
6HR MIN TEMP:  74; 6HR MAX TEMP:  79;

WEST BEND      MOCLDY    75  61  60 NW13      29.72R
JUNEAU         CLEAR     75  38  26 W6        29.74R
6HR MIN TEMP:  75; 6HR MAX TEMP:  78;

$$

LSZ147-162-200100-
LAKE SUPERIOR

STATION/POSITION TIME  TEMP    WIND        PRES    WAVE
                       AIR SEA DIR/SP/G            HT/PER
                 (UTC) (F)     (DEG/KT/KT) (MB)    (FT/S)
W MID LAKE BUOY  2350   56 56   30/ 14/ 16 1007.5R   2/ 4
DEVILS ISLAND    0000   61     100/ 10/ 10 1008.0
PORT WING        2340   65      40/  4/  5 1007.8S
SAXON HARBOR     2300   62      60/  2/  8 1008.1R
$$

LMZ867-665-643>646-200100-
LAKE MICHIGAN

STATION/POSITION TIME  TEMP    WIND        PRES    WAVE
                       AIR SEA DIR/SP/G            HT/PER
                 (UTC) (F)     (DEG/KT/KT) (MB)    (FT/S)
N MID LAKE BUOY  2350   63 62  200/  8/ 10 1004.6R   2/ 5
NORTHPORT PIER   2300   69     150/  7/  9 1004.7R
SISTER BAY       2326   72        CALM       N/A
ALGOMA LAKESHORE 2322          260/  8/ 10   N/A
KEWAUNEE LAKESHO 2300   67     210/  4/  7 1004.8R
SHEBOYGAN LAKESH 0000   68 64  180/ 10/ 11 1005.9R
ATWATER BUOY     0000   71     270/  2     1007.4S
MILWAUKEE LAKESH 2300   72      50/  8/ 10   N/A
S MID LAKE BUOY  2350   69 67  150/  4/  6 1006.0F   2/ 5
KENOSHA   LAKESH 0000   74      80/  9/ 10 1005.8R
$$

TC  - TEMPERATURE IN CELSIUS
VSB - VISIBILITY IN STATUTE MILES
WCI - WIND CHILL INDEX
HX  - HEAT INDEX



USA.gov is the U.S. government's official web portal to all federal, state and local government web resources and services.